www.pogodaiklimat.ru
ПОГОДА в Кизильском
Время
(UTC), дата
09 7.11
12 7.11
15 7.11
18 7.11
21 7.11
00 8.11
03 8.11
06 8.11
09 8.11
12 8.11
15 8.11
18 8.11
21 8.11
00 9.11
03 9.11
06 9.11
09 9.11
12 9.11
15 9.11
18 9.11
21 9.11
00 10.11
03 10.11
06 10.11
09 10.11
12 10.11
15 10.11
18 10.11
21 10.11
00 11.11
03 11.11
06 11.11
09 11.11
12 11.11
15 11.11
18 11.11
21 11.11
00 12.11
03 12.11
06 12.11
09 12.11
12 12.11
15 12.11
18 12.11
21 12.11
00 13.11
03 13.11
06 13.11
09 13.11
12 13.11
15 13.11
18 13.11
21 13.11
00 14.11
03 14.11
06 14.11
Ветер
(напр.,м/с)
Видим. Явления Облачность Т
(С)
Тd
(С)
f
(%)
Тe
(С)
Тes
(С)
Комфортность P
(гПа)
Po
(гПа)
Тmin
(С)
Tmax
(С)
R
(мм)
R24
(мм)
S
(см)
ЮЗ 6-12
{12}
20 км 9/9 600 м
[Cb calv]
+2.9 -1.6 72 -3 -3 прохладно 1018.1 977.9
ЮЗ 6-12
{13}
20 км 9/9 600 м
[Cb calv]
+3.3 -2.3 67 -2 -2 по сезону 1016.9 976.8
ЮЗ 7-12
{14}
10 км 9/9 600 м
[Cb calv]
+4.0 -2.2 64 -1 -1 по сезону 1015.5 975.6 +4.1
ЮЗ 3
{12}
10 км 10/10 600 м
[Cb calv]
+4.9 +0.7 74 +2 +2 по сезону 1015.9 976.2
ЮЗ 4 10 км 10/10 600 м
[Cb calv]
+4.2 +1.7 84 -0 -0 по сезону 1016.5 976.6
ЮЗ 4
{11}
10 км в посл. час ливневой дождь 10/10 600 м
[Cb calv]
+4.5 +3.0 90 0 0 по сезону 1016.5 976.6
ЮЗ 5
{10}
10 км 10/10 600 м
[Cb calv]
+5.1 +3.6 90 0 0 по сезону 1017.0 977.2 +3.9 0.0 0
ЮЗ 4
{11}
20 км 9/9 600 м
[Cb calv]
+5.5 +3.8 89 +1 +2 по сезону 1018.1 978.3
ЮЗ 3 20 км 10/10 600 м
[Cb calv]
+5.9 +3.8 86 +3 +3 по сезону 1019.5 979.8
ЮЗ 2 10 км {ливн. осадки} 10/10 600 м
[Cb calv]
+6.0 +3.8 86 +4 +4 по сезону 1021.2 981.4
Ю 1 10 км 10/10 600 м
[Cb calv]
+4.6 +2.9 89 +3 +3 по сезону 1022.1 982.0 +6.3 0.0
В 2 4000 м слаб. дождь 10/10 300 м
[Frnb Ns]
+3.8 +2.9 94 +1 +1 по сезону 1021.8 981.6
В 3 2000 м слаб. дождь со снегом 10/0 600 м
[As op]
+0.8 +0.1 95 -4 -4 прохладно 1022.7 982.1
СВ 3 2000 м снег {дождь} 10/0 600 м
[As op]
-0.5 -1.4 94 -5 -5 холодно 1021.5 980.7
С 5 2000 м слаб. снег 10/0 600 м
[As op]
-2.5 -3.4 94 -9 -9 очень
холодно
1022.6 981.5 -2.5 19 6
С 6
{11}
20 км {снег} 10/10 600 м
[Sc]
-3.9 -5.8 87 -11 -11 очень
холодно
1026.2 984.7 -3.9
С 6-10
{13}
20 км 8/6 600 м
[Cb calv Ac lent Ci fib]
-4.4 -7.0 82 -12 -12 очень
холодно
1029.6 987.9
С 5
{11}
20 км 9/9 600 м
[Cb calv]
-4.5 -7.0 83 -12 -12 очень
холодно
1033.2 991.3
СЗ 2 10 км 8/0
[Ac lent Ci fib]
-7.4 -9.2 87 -12 -12 очень
холодно
1036.2 993.7 -2.8 1
СЗ 1 10 км 3/0
[Ci fib]
-11.0 -12.3 90 -13 -13 очень
холодно
1038.7 995.6
СЗ 2 10 км 3/0
[Ci fib]
-14.3 -16.0 87 -19 -19 очень
холодно
1040.4 996.7
штиль 0 2000 м дымка 1/0
[Ci fib]
-15.9 -17.9 85 -16 -16 очень
холодно
1040.9 996.9
штиль 0 10 км 3/3 600 м
[Sc Ci fib]
-16.6 -18.7 84 -17 -17 очень
холодно
1041.6 997.4 -16.9 5
штиль 0 10 км 8/0
[Ac lent Ci fib]
-12.7 -14.3 88 -13 -12 очень
холодно
1041.3 997.7 -17.2
В 1 20 км 8/3 600 м
[Sc Ci]
-7.2 -9.5 84 -10 -8 очень
холодно
1039.1 996.6
СЗ 1 20 км 4/3 600 м
[Sc Ci fib]
-8.5 -11.4 80 -11 -11 очень
холодно
1038.6 995.9
З 1 10 км ясно -12.1 -13.8 87 -14 -14 очень
холодно
1039.1 995.8 -4.9
З 1 10 км ясно -13.9 -15.7 86 -16 -16 очень
холодно
1039.3 995.7
СЗ 1 10 км 6/0
[Ci fib]
-10.4 -12.2 87 -13 -13 очень
холодно
1037.7 994.7
СЗ 1 2000 м дымка 3/0
[Ci fib]
-14.7 -16.6 85 -17 -17 очень
холодно
1037.9 994.2
З 1 4000 м дымка 4/0
[Ac trans Ci fib]
-15.7 -17.6 85 -18 -18 очень
холодно
1038.1 994.2 -15.7 5
штиль 0 10 км 3/0
[Ci fib]
-6.9 -8.2 90 -8 -6 очень
холодно
1035.8 993.4 -15.8
ЮВ 1 20 км 6/0
[Ci fib]
+0.4 -3.9 73 -1 +1 по сезону 1032.9 991.8
Ю 2 20 км 8/1 600 м
[Sc Ci fib]
+0.6 -1.8 84 -3 -3 прохладно 1031.3 990.3
ЮВ 2 10 км 6/0
[Ci fib]
-1.8 -3.3 89 -6 -6 холодно 1031.1 989.7 +2.5
Ю 4 2000 м дымка 8/0
[Ci fib]
-3.8 -4.6 94 -10 -10 очень
холодно
1030.5 988.9
Ю 4 10 км 6/3 600 м
[Sc Ci fib]
-3.1 -4.5 90 -9 -9 очень
холодно
1029.2 987.7
Ю 4 10 км 6/3 600 м
[Sc Ci fib]
-3.3 -5.0 88 -9 -9 очень
холодно
1028.4 986.9
Ю 3 10 км 5/3 600 м
[Sc Ci fib]
-4.7 -6.4 88 -10 -10 очень
холодно
1028.0 986.3 -4.7 4
Ю 4 20 км 3/0
[Ci fib]
-2.8 -5.4 82 -9 -8 очень
холодно
1026.5 985.1 -5.8
Ю 4 20 км 4/3 600 м
[Sc Ci fib]
+0.8 -1.8 83 -4 -4 прохладно 1024.7 984.0
ЮЗ 4 20 км 8/8 600 м
[Sc]
+1.1 -1.1 85 -4 -4 прохладно 1024.0 983.3
Ю 2 10 км 9/9 600 м
[Sc]
+1.8 -0.5 85 -2 -2 по сезону 1023.2 982.7 +2.5
Ю 2 10 км 4/0
[Ci fib]
+1.4 -0.8 85 -2 -2 по сезону 1022.0 981.5
ЮЗ 3 10 км 5/0
[Ac trans]
+1.0 -0.6 89 -4 -4 прохладно 1021.2 980.7
ЮЗ 3 10 км 10/10 600 м
[Sc]
+2.2 +0.4 88 -2 -2 по сезону 1020.4 980.0
СЗ 1 10 км 9/8 600 м
[Sc Ci fib]
+1.5 -1.0 83 -0 -0 по сезону 1020.2 979.8 +0.8 3
СЗ 2 20 км 10/10 600 м
[Cb calv]
+2.0 -0.6 83 -1 -1 по сезону 1020.7 980.3
СЗ 3 20 км 10/10 600 м
[Cb calv]
+2.6 -0.4 81 -1 -1 по сезону 1021.2 980.9
С 3 20 км 10/10 600 м
[Cb calv]
+2.0 -0.5 83 -2 -2 по сезону 1022.8 982.3
СЗ 1 10 км 10/10 600 м
[Cb calv]
+1.3 -0.4 88 -1 -1 по сезону 1024.0 983.4 +2.7
З 1 10 км 10/10 600 м
[Cb calv]
+0.9 -0.5 90 -1 -1 по сезону 1025.3 984.6
З 1 10 км 10/10 600 м
[Cb calv]
+0.8 -0.6 90 -1 -1 по сезону 1026.0 985.2
СЗ 1 4000 м слаб. ливневой дождь 10/10 600 м
[Cb calv]
+0.6 -0.5 92 -1 -1 по сезону 1026.4 985.6
СВ 3 4000 м слаб. ливневой снег 10/10 600 м
[Cb calv]
-0.5 -2.1 89 -5 -5 холодно 1029.8 988.7 -0.5 0.7 1
СВ 5
{11}
20 км {ливн. осадки} 9/9 600 м
[Cb calv]
-4.0 -6.5 83 -11 -11 очень
холодно
1033.8 992.0 -4.0
Местоположение метеостанции Кизильское (Челябинская область, Россия): широта 52.72 долгота 58.88 высота над уровнем моря 323 м.
В архиве по умолчанию представлена погода в Кизильском за последнюю неделю. Архивные данные за месяц целиком и за предыдущие месяцы, начиная с января 2011 года, Вы можете получить, выбрав интересующий диапазон дат из раскрывающегося списка и нажав кнопку "Найти!".
*Определитесь, кто Вы:
Внимание! Время в таблицах - всемирное. Для получения местного времени необходимо прибавить поправку, которая равна 5 ч.
Смотрите также архив погоды в соседних городах и на ближайших метеорологических станциях:
Партнеры нашего сайта:      
Пояснения к столбцам:
  • Ветер - указаны скорость ветра в м/с - средняя за 10 мин, порывы в срок и между сроками (в фигурных скобках) и направление, откуда дует ветер: С - северный,
  • СВ - северо-восточный, В - восточный, ЮВ - юго-восточный, Ю - южный, ЮЗ - юго-западный, З - западный, СЗ - северо-западный.
  • Видимость - горизонтальная дальность видимости в метрах или километрах. При видимости от 1 до 10 км при отсутствии осадков обычно наблюдается дымка, при ухудшении видимости до 1 км и менее - туман. В сухую погоду видимость может ухудшаться дымом, пылью или мглою.
  • Явления - указаны атмосферные явления, наблюдавшиеся в срок или в последний час перед сроком; фигурными скобками обозначены явления, наблюдавшиеся между сроками (за 1-3 часа до срока); квадратными скобками обозначены град или гололедные отложения с указанием их диаметра в мм.
  • Облачность - указаны через наклонную черту общая и нижняя облачность в баллах и высота нижней границы облаков в метрах; квадратными скобками обозначены формы облаков: Ci - перистые, Cs - перисто-слоистые, Cc - перисто-кучевые, Ac - высококучевые, As - высокослоистые, Sc - слоисто-кучевые, Ns - слоисто-дождевые, Cu - кучевые, Cb - кучево-дождевые. Подробнее классификацию облаков см. в Атласе облаков (PDF).
  • T - Температура воздуха - температура, измеренная на высоте 2 м над землей.
  • Td - Температура точки росы - температура, при понижении до которой содержащийся в воздухе водяной пар достигнет насыщения.
  • f - Относительная влажность воздуха - влажноcть воздуха, измеренная на высоте 2 м над землей.
  • Te - Эффективная температура - температура, которую ощущает одетый по сезону человек в тени. Характеристика душности погоды. При расчете учитывается влияние влажности воздуха и скорости ветра на теплоощущения человека.
  • Tes - Эффективная температура на солнце - температура, которую ощущает человек, с поправкой на солнечный нагрев. Характеристика знойности погоды. Зависит от высоты солнца над горизонтом, облачности и скорости ветра. Ночью, в пасмурную погоду, а также при ветре 12 м/с и более поправка равна нулю.
  • P - Атмосферное давление - приведенное к уровню моря атмосферное давление.
  • Po - Атмосферное давление - измеренное на уровне метеостанции атмосферное давление.
  • Tmin - Минимальная температура - минимум температуры воздуха на высоте 2 м над землей.
  • Tmax - Максимальная температура - максимум температуры воздуха на высоте 2 м над землей.
  • R - Количество осадков - Количество выпавших осадков за период времени, мм. При наведении курсора мыши на число - период времени, за который выпало указанное количество осадков.
  • R24 - Количество осадков - Количество выпавших осадков за 24 часа, мм.
  • S - Снежный покров - Высота снежного покрова, см. При наведении курсора мыши на число - состояние снежного покрова и степень покрытия местности в баллах.